,,,PA_Meas_PMT16A,,PR_Meas_QMR101_102,,RH_Meas_QMH101,,SR_Meas_QMS101,,TA_Meas_QMH101,,GenWind,,GenWind,
date,time,status,PA,status,PR,status,RH,status,SR,status,TA,status,DirAvg,status,SpdAvg,
2009-09-03, 00:00:04,VALID,998.932,VALID,0,VALID,88.0916,VALID,0,VALID,24.0329,VALID,117,VALID,1.04375,
2009-09-03, 00:01:04,VALID,998.923,VALID,0,VALID,88.3739,VALID,0,VALID,23.9939,VALID,116,VALID,0.844531,
2009-09-03, 00:02:04,VALID,998.921,VALID,0,VALID,88.6333,VALID,0,VALID,23.9726,VALID,117,VALID,0.669531,
2009-09-03, 00:03:04,VALID,998.928,VALID,0,VALID,88.7935,VALID,0,VALID,23.9531,VALID,120,VALID,0.659375,
2009-09-03, 00:04:04,VALID,998.942,VALID,0,VALID,88.969,VALID,0,VALID,23.9549,VALID,120,VALID,0.597266,
2009-09-03, 00:05:04,VALID,998.942,VALID,0,VALID,89.0453,VALID,0,VALID,23.914,VALID,120,VALID,0.451562,
2009-09-03, 00:06:04,VALID,998.907,VALID,0,VALID,89.1216,VALID,0,VALID,23.9159,VALID,120,VALID,0.438672,
2009-09-03, 00:07:04,VALID,998.87,VALID,0,VALID,89.3352,VALID,0,VALID,23.8768,VALID,120,VALID,0.472266,
2009-09-03, 00:08:04,VALID,998.875,VALID,0,VALID,89.4649,VALID,0,VALID,23.8555,VALID,120,VALID,0.474219,
2009-09-03, 00:09:04,VALID,998.851,VALID,0,VALID,89.5107,VALID,0,VALID,23.8768,VALID,120,VALID,0.555078,
2009-09-03, 00:10:04,VALID,998.825,VALID,0,VALID,89.5946,VALID,0,VALID,23.8768,VALID,120,VALID,0.483984,
2009-09-03, 00:11:04,VALID,998.831,VALID,0,VALID,89.5794,VALID,0,VALID,23.8963,VALID,120,VALID,0.453906,
2009-09-03, 00:12:04,VALID,998.811,VALID,0,VALID,89.4726,VALID,0,VALID,23.875,VALID,120,VALID,0.418359,
2009-09-03, 00:13:04,VALID,998.77,VALID,0,VALID,89.4039,VALID,0,VALID,23.8945,VALID,120,VALID,0.278906,
2009-09-03, 00:14:04,VALID,998.721,VALID,0,VALID,89.3276,VALID,0,VALID,23.9336,VALID,120,VALID,0.261719,
2009-09-03, 00:15:04,VALID,998.688,VALID,0,VALID,89.1674,VALID,0,VALID,23.9336,VALID,120,VALID,0.103906,
2009-09-03, 00:16:04,VALID,998.709,VALID,0,VALID,89.1063,VALID,0,VALID,23.9336,VALID,120,VALID,0.212891,
2009-09-03, 00:17:04,VALID,998.684,VALID,0,VALID,89.03,VALID,0,VALID,23.9549,VALID,120,VALID,0.314063,
2009-09-03, 00:18:04,VALID,998.674,VALID,0,VALID,88.824,VALID,0.112286,VALID,23.9531,VALID,120,VALID,0.488672,
2009-09-03, 00:19:04,VALID,998.635,VALID,0,VALID,89.1597,VALID,0,VALID,23.9336,VALID,120,VALID,0.538281,
2009-09-03, 00:20:04,VALID,998.606,VALID,0,VALID,89.4878,VALID,0,VALID,23.9336,VALID,116,VALID,0.491406,
2009-09-03, 00:21:04,VALID,998.622,VALID,0,VALID,89.6633,VALID,0,VALID,23.9744,VALID,116,VALID,0.566406,
2009-09-03, 00:22:04,VALID,998.569,VALID,0,VALID,89.6023,VALID,0,VALID,23.9939,VALID,116,VALID,0.403906,
2009-09-03, 00:23:04,VALID,998.583,VALID,0,VALID,89.5946,VALID,0,VALID,23.9726,VALID,116,VALID,0.309766,
2009-09-03, 00:24:04,VALID,998.593,VALID,0,VALID,89.4726,VALID,0.112286,VALID,23.9531,VALID,116,VALID,0.230469,
2009-09-03, 00:25:04,VALID,998.594,VALID,0,VALID,89.5031,VALID,0,VALID,23.914,VALID,116,VALID,0.125781,
2009-09-03, 00:26:04,VALID,998.589,VALID,0,VALID,89.6786,VALID,0,VALID,23.914,VALID,116,VALID,0,
2009-09-03, 00:27:04,VALID,998.573,VALID,0,VALID,89.587,VALID,0.112286,VALID,23.8963,VALID,116,VALID,0,
2009-09-03, 00:28:04,VALID,998.575,VALID,0,VALID,89.442,VALID,0,VALID,23.8201,VALID,116,VALID,0.220703,
2009-09-03, 00:29:04,VALID,998.558,VALID,0,VALID,89.6633,VALID,0,VALID,23.7402,VALID,116,VALID,0.303516,
2009-09-03, 00:30:04,VALID,998.572,VALID,0,VALID,90.0829,VALID,0,VALID,23.7402,VALID,116,VALID,0.211719,
2009-09-03, 00:31:04,VALID,998.569,VALID,0,VALID,90.1592,VALID,0,VALID,23.7402,VALID,116,VALID,0.0796875,
2009-09-03, 00:32:04,VALID,998.536,VALID,0,VALID,90.2126,VALID,0,VALID,23.7207,VALID,116,VALID,0.00234375,
2009-09-03, 00:33:04,VALID,998.537,VALID,0,VALID,90.35,VALID,0,VALID,23.7225,VALID,116,VALID,0,
2009-09-03, 00:34:04,VALID,998.528,VALID,0,VALID,90.411,VALID,0,VALID,23.742,VALID,116,VALID,0,
2009-09-03, 00:35:04,VALID,998.492,VALID,0,VALID,90.411,VALID,0,VALID,23.7012,VALID,116,VALID,0,
2009-09-03, 00:36:04,VALID,998.495,VALID,0,VALID,90.4873,VALID,0,VALID,23.6817,VALID,116,VALID,0,
2009-09-03, 00:37:04,VALID,998.48,VALID,0,VALID,90.5026,VALID,0,VALID,23.6622,VALID,116,VALID,0,
2009-09-03, 00:38:04,VALID,998.48,VALID,0,VALID,90.5254,VALID,0,VALID,23.6622,VALID,116,VALID,0,
2009-09-03, 00:39:04,VALID,998.499,VALID,0,VALID,90.5636,VALID,0,VALID,23.664,VALID,116,VALID,0,
2009-09-03, 00:40:04,VALID,998.506,VALID,0,VALID,90.3042,VALID,0,VALID,23.6232,VALID,116,VALID,0,
2009-09-03, 00:41:04,VALID,998.501,VALID,0,VALID,90.0524,VALID,0,VALID,23.5664,VALID,116,VALID,0.445313,
2009-09-03, 00:42:04,VALID,998.509,VALID,0,VALID,90.1516,VALID,0,VALID,23.4671,VALID,34,VALID,0.680469,
2009-09-03, 00:43:04,VALID,998.505,VALID,0,VALID,90.7467,VALID,0,VALID,23.4298,VALID,30,VALID,0.642187,
2009-09-03, 00:44:04,VALID,998.499,VALID,0,VALID,91.0137,VALID,0,VALID,23.4103,VALID,30,VALID,0.634375,
2009-09-03, 00:45:04,VALID,998.499,VALID,0,VALID,91.2579,VALID,0,VALID,23.4103,VALID,30,VALID,0.564062,
2009-09-03, 00:46:04,VALID,998.464,VALID,0,VALID,91.4715,VALID,0,VALID,23.3908,VALID,30,VALID,0.666797,
2009-09-03, 00:47:04,VALID,998.452,VALID,0,VALID,91.6317,VALID,0,VALID,23.389,VALID,26,VALID,0.772656,
2009-09-03, 00:48:04,VALID,998.457,VALID,0,VALID,91.6394,VALID,0,VALID,23.3695,VALID,25,VALID,0.684375,
2009-09-03, 00:49:04,VALID,998.47,VALID,0,VALID,91.6775,VALID,0,VALID,23.389,VALID,25,VALID,0.63125,
2009-09-03, 00:50:04,VALID,998.441,VALID,0,VALID,91.6623,VALID,0,VALID,23.3713,VALID,25,VALID,0.748828,
2009-09-03, 00:51:04,VALID,998.435,VALID,0,VALID,91.586,VALID,0,VALID,23.3305,VALID,25,VALID,0.680078,
2009-09-03, 00:52:04,VALID,998.432,VALID,0,VALID,91.4639,VALID,0,VALID,23.3323,VALID,25,VALID,0.575,
2009-09-03, 00:53:04,VALID,998.391,VALID,0,VALID,91.5326,VALID,0,VALID,23.2719,VALID,25,VALID,0.664063,
2009-09-03, 00:54:04,VALID,998.382,VALID,0,VALID,91.4334,VALID,0,VALID,23.2719,VALID,37,VALID,0.721094,
2009-09-03, 00:55:04,VALID,998.371,VALID,0,VALID,91.1434,VALID,0,VALID,23.2524,VALID,50,VALID,0.6375,
2009-09-03, 00:56:04,VALID,998.326,VALID,0,VALID,91.1663,VALID,0,VALID,23.2152,VALID,54,VALID,0.505469,
2009-09-03, 00:57:04,VALID,998.31,VALID,0,VALID,91.296,VALID,0,VALID,23.1939,VALID,54,VALID,0.565625,
2009-09-03, 00:58:04,VALID,998.286,VALID,0,VALID,91.3037,VALID,0,VALID,23.1957,VALID,58,VALID,0.565234,
2009-09-03, 00:59:04,VALID,998.233,VALID,0,VALID,91.3266,VALID,0,VALID,23.1762,VALID,82,VALID,0.659766,
2009-09-03, 01:00:04,VALID,998.215,VALID,0,VALID,91.4028,VALID,0,VALID,23.1566,VALID,82,VALID,0.677344,
2009-09-03, 01:01:04,VALID,998.197,VALID,0,VALID,91.1511,VALID,0,VALID,23.1371,VALID,83,VALID,0.847656,
2009-09-03, 01:02:04,VALID,998.172,VALID,0,VALID,91.2045,VALID,0,VALID,23.1176,VALID,90,VALID,0.851563,
2009-09-03, 01:03:04,VALID,998.157,VALID,0,VALID,91.3113,VALID,0,VALID,23.0981,VALID,90,VALID,0.602734,
2009-09-03, 01:04:04,VALID,998.135,VALID,0,VALID,91.3037,VALID,0,VALID,23.0573,VALID,90,VALID,0.571484,
2009-09-03, 01:05:04,VALID,998.133,VALID,0,VALID,91.4486,VALID,0,VALID,23.0786,VALID,89,VALID,0.323828,
2009-09-03, 01:06:04,VALID,998.132,VALID,0,VALID,91.4944,VALID,0,VALID,23.0786,VALID,89,VALID,0.416406,
2009-09-03, 01:07:04,VALID,998.123,VALID,0,VALID,91.5402,VALID,0,VALID,23.0786,VALID,89,VALID,0.453516,
2009-09-03, 01:08:04,VALID,998.144,VALID,0,VALID,91.586,VALID,0,VALID,23.0786,VALID,89,VALID,0.722266,
2009-09-03, 01:09:04,VALID,998.153,VALID,0,VALID,91.5478,VALID,0,VALID,23.0591,VALID,88,VALID,0.763281,
2009-09-03, 01:10:04,VALID,998.088,VALID,0,VALID,91.3876,VALID,0,VALID,23.0396,VALID,87,VALID,0.783984,
2009-09-03, 01:11:04,VALID,998.084,VALID,0,VALID,91.6394,VALID,0,VALID,22.9988,VALID,85,VALID,0.65,
2009-09-03, 01:12:04,VALID,998.082,VALID,0,VALID,91.7462,VALID,0,VALID,23.0201,VALID,78,VALID,0.602344,
2009-09-03, 01:13:04,VALID,998.037,VALID,0,VALID,91.5402,VALID,0,VALID,23.0006,VALID,77,VALID,0.403125,
2009-09-03, 01:14:04,VALID,998.052,VALID,0,VALID,91.2808,VALID,0,VALID,22.9615,VALID,77,VALID,0.335156,
2009-09-03, 01:15:04,VALID,998.063,VALID,0,VALID,91.3952,VALID,0,VALID,22.903,VALID,77,VALID,0.375,
2009-09-03, 01:16:04,VALID,998.064,VALID,0,VALID,91.8377,VALID,0,VALID,22.903,VALID,77,VALID,0.223438,
2009-09-03, 01:17:04,VALID,998.094,VALID,0,VALID,91.8759,VALID,0,VALID,22.9225,VALID,77,VALID,0.166797,
2009-09-03, 01:18:04,VALID,998.092,VALID,0,VALID,91.9064,VALID,0,VALID,22.942,VALID,77,VALID,0.117578,
2009-09-03, 01:19:04,VALID,998.097,VALID,0,VALID,91.9217,VALID,0,VALID,22.942,VALID,77,VALID,0.220703,
2009-09-03, 01:20:04,VALID,998.074,VALID,0,VALID,91.9674,VALID,0,VALID,22.9403,VALID,77,VALID,0.429297,
2009-09-03, 01:21:04,VALID,998.089,VALID,0,VALID,92.0285,VALID,0,VALID,22.9811,VALID,68,VALID,0.559375,
2009-09-03, 01:22:04,VALID,998.095,VALID,0,VALID,91.8301,VALID,0,VALID,22.9811,VALID,25,VALID,0.807813,
2009-09-03, 01:23:04,VALID,998.106,VALID,0,VALID,91.8606,VALID,0,VALID,22.9598,VALID,18,VALID,0.803516,
2009-09-03, 01:24:04,VALID,998.133,VALID,0,VALID,91.3418,VALID,0,VALID,22.9225,VALID,14,VALID,0.904297,
2009-09-03, 01:25:04,VALID,998.133,VALID,0,VALID,91.2884,VALID,0,VALID,22.864,VALID,13,VALID,0.960547,
2009-09-03, 01:26:04,VALID,998.156,VALID,0,VALID,91.7157,VALID,0,VALID,22.825,VALID,1,VALID,1.10078,
2009-09-03, 01:27:04,VALID,998.107,VALID,0,VALID,91.8072,VALID,0,VALID,22.825,VALID,1,VALID,1.00312,
2009-09-03, 01:28:04,VALID,998.097,VALID,0,VALID,91.8454,VALID,0,VALID,22.8215,VALID,1,VALID,0.81875,
2009-09-03, 01:29:04,VALID,998.045,VALID,0,VALID,91.9217,VALID,0,VALID,22.8215,VALID,354,VALID,0.600781,
2009-09-03, 01:30:04,VALID,998.018,VALID,0,VALID,91.7996,VALID,0,VALID,22.8232,VALID,345,VALID,0.589453,
2009-09-03, 01:31:04,VALID,997.998,VALID,0,VALID,91.8072,VALID,0,VALID,22.8427,VALID,345,VALID,0.514453,
2009-09-03, 01:32:04,VALID,997.966,VALID,0,VALID,91.7157,VALID,0,VALID,22.7825,VALID,345,VALID,0.212891,
2009-09-03, 01:33:04,VALID,997.979,VALID,0,VALID,91.8148,VALID,0,VALID,22.7842,VALID,342,VALID,0.291797,
2009-09-03, 01:34:04,VALID,997.979,VALID,0,VALID,91.9674,VALID,0.112286,VALID,22.8232,VALID,342,VALID,0.208984,
2009-09-03, 01:35:04,VALID,997.971,VALID,0,VALID,92.1506,VALID,0,VALID,22.8427,VALID,342,VALID,0.414844,
2009-09-03, 01:36:04,VALID,997.958,VALID,0,VALID,92.1734,VALID,0.112286,VALID,22.8605,VALID,342,VALID,0.270703,
2009-09-03, 01:37:04,VALID,997.977,VALID,0,VALID,91.9293,VALID,0.112286,VALID,22.841,VALID,342,VALID,0.394922,
2009-09-03, 01:38:04,VALID,997.979,VALID,0,VALID,91.998,VALID,0,VALID,22.8623,VALID,342,VALID,0.357812,
2009-09-03, 01:39:04,VALID,997.967,VALID,0,VALID,92.0514,VALID,0,VALID,22.8623,VALID,342,VALID,0.325,
2009-09-03, 01:40:04,VALID,997.992,VALID,0,VALID,92.0437,VALID,0,VALID,22.8215,VALID,342,VALID,0.104687,
2009-09-03, 01:41:04,VALID,997.973,VALID,0,VALID,92.0361,VALID,0,VALID,22.8215,VALID,342,VALID,0.0566406,
2009-09-03, 01:42:04,VALID,998.01,VALID,0,VALID,92.0361,VALID,0,VALID,22.802,VALID,342,VALID,0.1125,
2009-09-03, 01:43:04,VALID,997.986,VALID,0,VALID,92.0819,VALID,0,VALID,22.825,VALID,342,VALID,0.445703,
2009-09-03, 01:44:04,VALID,997.946,VALID,0,VALID,91.8988,VALID,0,VALID,22.7647,VALID,52,VALID,0.919141,
2009-09-03, 01:45:04,VALID,997.94,VALID,0,VALID,91.7462,VALID,0,VALID,22.7842,VALID,53,VALID,1.08984,
2009-09-03, 01:46:04,VALID,997.943,VALID,0,VALID,91.5707,VALID,0,VALID,22.7842,VALID,53,VALID,1.10195,
2009-09-03, 01:47:04,VALID,997.93,VALID,0,VALID,91.4028,VALID,0,VALID,22.8232,VALID,53,VALID,1.13867,
2009-09-03, 01:48:04,VALID,997.931,VALID,0,VALID,91.38,VALID,0,VALID,22.8818,VALID,43,VALID,1.10625,
2009-09-03, 01:49:04,VALID,997.964,VALID,0,VALID,90.8611,VALID,0,VALID,22.9013,VALID,40,VALID,0.811328,
2009-09-03, 01:50:04,VALID,997.962,VALID,0,VALID,90.06,VALID,0,VALID,22.8427,VALID,5,VALID,0.654688,
2009-09-03, 01:51:04,VALID,997.967,VALID,0,VALID,90.5483,VALID,0,VALID,22.8055,VALID,334,VALID,0.8125,
2009-09-03, 01:52:04,VALID,997.993,VALID,0,VALID,90.884,VALID,0,VALID,22.8232,VALID,334,VALID,0.35625,
2009-09-03, 01:53:04,VALID,998.008,VALID,0,VALID,91.0366,VALID,0,VALID,22.8445,VALID,334,VALID,0.389453,
2009-09-03, 01:54:04,VALID,998.02,VALID,0,VALID,91.0214,VALID,0,VALID,22.8623,VALID,334,VALID,0.220313,
2009-09-03, 01:55:04,VALID,997.997,VALID,0,VALID,90.9298,VALID,0,VALID,22.8623,VALID,334,VALID,0.462891,
2009-09-03, 01:56:04,VALID,997.971,VALID,0,VALID,90.8001,VALID,0,VALID,22.864,VALID,57,VALID,0.739062,
2009-09-03, 01:57:04,VALID,997.923,VALID,0,VALID,90.7696,VALID,0,VALID,22.8232,VALID,45,VALID,0.914844,
2009-09-03, 01:58:04,VALID,997.922,VALID,0,VALID,90.3194,VALID,0,VALID,22.7647,VALID,66,VALID,1.0918,
2009-09-03, 01:59:04,VALID,997.911,VALID,0,VALID,90.7925,VALID,0,VALID,22.7257,VALID,54,VALID,1.45195,
2009-09-03, 02:00:04,VALID,997.896,VALID,0,VALID,90.9756,VALID,0,VALID,22.7257,VALID,48,VALID,1.50117,
2009-09-03, 02:01:04,VALID,997.881,VALID,0,VALID,90.8993,VALID,0,VALID,22.7062,VALID,48,VALID,1.14336,
2009-09-03, 02:02:04,VALID,997.897,VALID,0,VALID,90.7467,VALID,0,VALID,22.7079,VALID,51,VALID,0.857813,
2009-09-03, 02:03:04,VALID,997.86,VALID,0,VALID,90.8611,VALID,0,VALID,22.6672,VALID,51,VALID,0.498437,
2009-09-03, 02:04:04,VALID,997.882,VALID,0,VALID,90.8306,VALID,0,VALID,22.6477,VALID,51,VALID,0.253516,
2009-09-03, 02:05:04,VALID,997.901,VALID,0,VALID,90.7925,VALID,0,VALID,22.6087,VALID,51,VALID,0.173438,
2009-09-03, 02:06:04,VALID,997.878,VALID,0,VALID,91.0137,VALID,0,VALID,22.5892,VALID,3,VALID,0.291016,
2009-09-03, 02:07:04,VALID,997.848,VALID,0,VALID,91.1816,VALID,0,VALID,22.5892,VALID,3,VALID,0.174609,
2009-09-03, 02:08:04,VALID,997.875,VALID,0,VALID,91.2197,VALID,0,VALID,22.6104,VALID,3,VALID,0,
2009-09-03, 02:09:04,VALID,997.871,VALID,0,VALID,91.2503,VALID,0,VALID,22.6104,VALID,3,VALID,0.0433594,
2009-09-03, 02:10:04,VALID,997.833,VALID,0,VALID,91.3266,VALID,0,VALID,22.5714,VALID,3,VALID,0,
2009-09-03, 02:11:04,VALID,997.845,VALID,0,VALID,91.502,VALID,0,VALID,22.5696,VALID,3,VALID,0,
2009-09-03, 02:12:05,VALID,997.831,VALID,0,VALID,91.6699,VALID,0,VALID,22.5892,VALID,3,VALID,0.421484,
2009-09-03, 02:13:05,VALID,997.817,VALID,0,VALID,91.647,VALID,0,VALID,22.5892,VALID,3,VALID,0.384375,
2009-09-03, 02:14:05,VALID,997.834,VALID,0,VALID,91.586,VALID,0,VALID,22.5892,VALID,3,VALID,0.351563,
2009-09-03, 02:15:05,VALID,997.826,VALID,0,VALID,91.586,VALID,0,VALID,22.5696,VALID,3,VALID,0.251563,
2009-09-03, 02:16:05,VALID,997.832,VALID,0,VALID,91.4868,VALID,0,VALID,22.5501,VALID,3,VALID,0.1625,
2009-09-03, 02:17:05,VALID,997.78,VALID,0,VALID,91.6088,VALID,0,VALID,22.5111,VALID,3,VALID,0.374219,
2009-09-03, 02:18:05,VALID,997.813,VALID,0,VALID,91.7843,VALID,0,VALID,22.5306,VALID,25,VALID,0.583594,
2009-09-03, 02:19:05,VALID,997.801,VALID,0,VALID,91.9369,VALID,0,VALID,22.5306,VALID,35,VALID,0.477734,
2009-09-03, 02:20:05,VALID,997.841,VALID,0,VALID,91.7843,VALID,0,VALID,22.5306,VALID,35,VALID,0.30625,
2009-09-03, 02:21:05,VALID,997.843,VALID,0,VALID,91.6623,VALID,0,VALID,22.5111,VALID,35,VALID,0.181641,
2009-09-03, 02:22:05,VALID,997.819,VALID,0,VALID,91.6775,VALID,0,VALID,22.4704,VALID,35,VALID,0.0796875,
2009-09-03, 02:23:05,VALID,997.836,VALID,0,VALID,91.6317,VALID,0,VALID,22.4721,VALID,35,VALID,0.000390625,
2009-09-03, 02:24:05,VALID,997.781,VALID,0,VALID,91.8072,VALID,0,VALID,22.4526,VALID,35,VALID,0.328516,
2009-09-03, 02:25:05,VALID,997.806,VALID,0,VALID,91.9064,VALID,0,VALID,22.4526,VALID,35,VALID,0.390234,
2009-09-03, 02:26:05,VALID,997.796,VALID,0,VALID,91.8606,VALID,0,VALID,22.4526,VALID,35,VALID,0.255859,
2009-09-03, 02:27:05,VALID,997.774,VALID,0,VALID,91.7996,VALID,0,VALID,22.4136,VALID,35,VALID,0,
2009-09-03, 02:28:05,VALID,997.779,VALID,0,VALID,91.8835,VALID,0,VALID,22.4153,VALID,35,VALID,0.203516,
2009-09-03, 02:29:05,VALID,997.763,VALID,0,VALID,92.2803,VALID,0,VALID,22.4153,VALID,54,VALID,0.589063,
2009-09-03, 02:30:05,VALID,997.744,VALID,0,VALID,92.6083,VALID,0,VALID,22.4933,VALID,73,VALID,0.528125,
2009-09-03, 02:31:05,VALID,997.744,VALID,0,VALID,92.6694,VALID,0,VALID,22.5519,VALID,73,VALID,0.465625,
2009-09-03, 02:32:05,VALID,997.751,VALID,0,VALID,92.6999,VALID,0,VALID,22.6104,VALID,86,VALID,0.460547,
2009-09-03, 02:33:05,VALID,997.742,VALID,0,VALID,92.616,VALID,0,VALID,22.6299,VALID,86,VALID,0.354297,
2009-09-03, 02:34:05,VALID,997.738,VALID,0,VALID,92.4634,VALID,0,VALID,22.6689,VALID,86,VALID,0.474219,
2009-09-03, 02:35:05,VALID,997.719,VALID,0,VALID,92.4023,VALID,0,VALID,22.6477,VALID,81,VALID,0.519141,
2009-09-03, 02:36:05,VALID,997.713,VALID,0,VALID,92.2879,VALID,0,VALID,22.6477,VALID,79,VALID,0.613281,
2009-09-03, 02:37:05,VALID,997.725,VALID,0,VALID,92.2726,VALID,0,VALID,22.6494,VALID,79,VALID,0.642578,
2009-09-03, 02:38:05,VALID,997.703,VALID,0,VALID,92.2192,VALID,0,VALID,22.6494,VALID,79,VALID,0.416406,
2009-09-03, 02:39:05,VALID,997.714,VALID,0,VALID,92.1048,VALID,0,VALID,22.6299,VALID,79,VALID,0.531641,
2009-09-03, 02:40:05,VALID,997.685,VALID,0,VALID,92.0361,VALID,0,VALID,22.5501,VALID,77,VALID,0.628906,
2009-09-03, 02:41:05,VALID,997.69,VALID,0,VALID,92.0971,VALID,0,VALID,22.5306,VALID,77,VALID,0.341406,
2009-09-03, 02:42:05,VALID,997.675,VALID,0,VALID,92.0209,VALID,0,VALID,22.5128,VALID,73,VALID,0.418359,
2009-09-03, 02:43:05,VALID,997.673,VALID,0,VALID,92.0895,VALID,0,VALID,22.4738,VALID,43,VALID,0.530078,
2009-09-03, 02:44:05,VALID,997.671,VALID,0,VALID,92.0895,VALID,0,VALID,22.4136,VALID,20,VALID,0.527734,
2009-09-03, 02:45:05,VALID,997.609,VALID,0,VALID,92.2497,VALID,0,VALID,22.4153,VALID,20,VALID,0.367969,
2009-09-03, 02:46:05,VALID,997.641,VALID,0,VALID,92.4023,VALID,0,VALID,22.4153,VALID,20,VALID,0.349219,
2009-09-03, 02:47:05,VALID,997.618,VALID,0,VALID,92.3794,VALID,0,VALID,22.4348,VALID,20,VALID,0.426172,
2009-09-03, 02:48:05,VALID,997.664,VALID,0,VALID,92.5702,VALID,0,VALID,22.4543,VALID,20,VALID,0.353125,
2009-09-03, 02:49:05,VALID,997.651,VALID,0,VALID,92.532,VALID,0,VALID,22.4543,VALID,20,VALID,0.300391,
2009-09-03, 02:50:05,VALID,997.65,VALID,0,VALID,92.5091,VALID,0,VALID,22.4331,VALID,20,VALID,0.276563,
2009-09-03, 02:51:05,VALID,997.659,VALID,0,VALID,92.3566,VALID,0,VALID,22.4136,VALID,20,VALID,0.233594,
2009-09-03, 02:52:05,VALID,997.659,VALID,0,VALID,92.6465,VALID,0,VALID,22.4331,VALID,20,VALID,0.292578,
2009-09-03, 02:53:05,VALID,997.593,VALID,0,VALID,92.8754,VALID,0,VALID,22.4933,VALID,20,VALID,0.494531,
2009-09-03, 02:54:05,VALID,997.615,VALID,0,VALID,92.8601,VALID,0,VALID,22.5323,VALID,69,VALID,0.680078,
2009-09-03, 02:55:05,VALID,997.591,VALID,0,VALID,92.6007,VALID,0,VALID,22.5111,VALID,78,VALID,0.683203,
2009-09-03, 02:56:05,VALID,997.591,VALID,0,VALID,92.7075,VALID,0,VALID,22.5111,VALID,78,VALID,0.608594,
2009-09-03, 02:57:05,VALID,997.545,VALID,0,VALID,92.7762,VALID,0,VALID,22.5714,VALID,78,VALID,0.248828,
2009-09-03, 02:58:05,VALID,997.533,VALID,0,VALID,92.7838,VALID,0,VALID,22.5696,VALID,78,VALID,0.519141,
2009-09-03, 02:59:05,VALID,997.547,VALID,0,VALID,92.6999,VALID,0,VALID,22.6087,VALID,78,VALID,0.458984,
2009-09-03, 03:00:05,VALID,997.553,VALID,0,VALID,92.5854,VALID,0,VALID,22.6494,VALID,78,VALID,0.417578,
2009-09-03, 03:01:05,VALID,997.548,VALID,0,VALID,92.532,VALID,0,VALID,22.6282,VALID,78,VALID,0.408203,
2009-09-03, 03:02:05,VALID,997.546,VALID,0,VALID,92.3794,VALID,0,VALID,22.6477,VALID,71,VALID,0.398438,
2009-09-03, 03:03:05,VALID,997.531,VALID,0,VALID,92.0514,VALID,0,VALID,22.5892,VALID,11,VALID,0.770703,
2009-09-03, 03:04:05,VALID,997.487,VALID,0,VALID,91.8225,VALID,0,VALID,22.5519,VALID,6,VALID,1.32187,
2009-09-03, 03:05:05,VALID,997.525,VALID,0,VALID,91.9293,VALID,0,VALID,22.5323,VALID,357,VALID,0.882813,
2009-09-03, 03:06:05,VALID,997.517,VALID,0,VALID,91.9598,VALID,0,VALID,22.5128,VALID,357,VALID,0.486719,
2009-09-03, 03:07:05,VALID,997.5,VALID,0,VALID,92.0437,VALID,0,VALID,22.4738,VALID,357,VALID,1.03398,
2009-09-03, 03:08:05,VALID,997.524,VALID,0,VALID,92.1429,VALID,0,VALID,22.4738,VALID,359,VALID,0.878516,
2009-09-03, 03:09:05,VALID,997.53,VALID,0,VALID,91.9369,VALID,0,VALID,22.3941,VALID,360,VALID,1.12305,
2009-09-03, 03:10:05,VALID,997.537,VALID,0,VALID,92.3642,VALID,0,VALID,22.4136,VALID,344,VALID,0.873438,
2009-09-03, 03:11:05,VALID,997.562,VALID,0,VALID,92.2192,VALID,0,VALID,22.4136,VALID,341,VALID,0.591406,
2009-09-03, 03:12:05,VALID,997.581,VALID,0,VALID,92.3566,VALID,0,VALID,22.4543,VALID,341,VALID,0.906641,
2009-09-03, 03:13:05,VALID,997.557,VALID,0,VALID,92.1506,VALID,0,VALID,22.4136,VALID,316,VALID,0.716406,
2009-09-03, 03:14:05,VALID,997.592,VALID,0,VALID,92.3489,VALID,0,VALID,22.4738,VALID,311,VALID,0.94375,
2009-09-03, 03:15:05,VALID,997.575,VALID,0,VALID,92.41,VALID,0,VALID,22.4738,VALID,317,VALID,0.742578,
2009-09-03, 03:16:05,VALID,997.655,VALID,0,VALID,92.1734,VALID,0,VALID,22.4543,VALID,324,VALID,0.455859,
2009-09-03, 03:17:05,VALID,997.659,VALID,0,VALID,92.2421,VALID,0,VALID,22.4543,VALID,324,VALID,0.234375,
2009-09-03, 03:18:05,VALID,997.663,VALID,0,VALID,92.2192,VALID,0,VALID,22.4348,VALID,333,VALID,0.507813,
2009-09-03, 03:19:05,VALID,997.666,VALID,0,VALID,92.4176,VALID,0,VALID,22.4136,VALID,8,VALID,0.697266,
2009-09-03, 03:20:05,VALID,997.697,VALID,0,VALID,92.1582,VALID,0,VALID,22.3941,VALID,8,VALID,0.461719,
2009-09-03, 03:21:05,VALID,997.73,VALID,0,VALID,92.2574,VALID,0,VALID,22.3958,VALID,8,VALID,0.357422,
2009-09-03, 03:22:05,VALID,997.779,VALID,0,VALID,92.2574,VALID,0,VALID,22.3551,VALID,8,VALID,0.165234,
2009-09-03, 03:23:05,VALID,997.756,VALID,0,VALID,92.2116,VALID,0,VALID,22.3356,VALID,8,VALID,0.117969,
2009-09-03, 03:24:05,VALID,997.795,VALID,0,VALID,92.3413,VALID,0,VALID,22.2966,VALID,8,VALID,0.224219,
2009-09-03, 03:25:05,VALID,997.776,VALID,0,VALID,92.5473,VALID,0,VALID,22.3568,VALID,8,VALID,0.210938,
2009-09-03, 03:26:05,VALID,997.804,VALID,0,VALID,92.7228,VALID,0,VALID,22.3958,VALID,8,VALID,0.589844,
2009-09-03, 03:27:05,VALID,997.818,VALID,0,VALID,92.6007,VALID,0,VALID,22.3746,VALID,8,VALID,0.44375,
2009-09-03, 03:28:05,VALID,997.848,VALID,0,VALID,92.3871,VALID,0,VALID,22.3551,VALID,8,VALID,0.621094,
2009-09-03, 03:29:05,VALID,997.873,VALID,0,VALID,92.4863,VALID,0,VALID,22.3763,VALID,8,VALID,0.663281,
2009-09-03, 03:30:05,VALID,997.909,VALID,0,VALID,92.6541,VALID,0,VALID,22.3941,VALID,8,VALID,0.53125,
2009-09-03, 03:31:05,VALID,997.904,VALID,0,VALID,92.6312,VALID,0,VALID,22.4543,VALID,8,VALID,0.445703,
2009-09-03, 03:32:05,VALID,997.966,VALID,0,VALID,92.4634,VALID,0,VALID,22.4543,VALID,8,VALID,0.766016,
2009-09-03, 03:33:05,VALID,997.948,VALID,0,VALID,92.326,VALID,0,VALID,22.4721,VALID,10,VALID,0.720312,
2009-09-03, 03:34:05,VALID,997.978,VALID,0,VALID,92.0514,VALID,0,VALID,22.4526,VALID,16,VALID,0.895703,
2009-09-03, 03:35:05,VALID,997.967,VALID,0,VALID,91.7843,VALID,0,VALID,22.4331,VALID,27,VALID,0.869531,
2009-09-03, 03:36:05,VALID,997.995,VALID,0,VALID,91.4868,VALID,0,VALID,22.4153,VALID,27,VALID,1,
2009-09-03, 03:37:05,VALID,997.959,VALID,0,VALID,91.2503,VALID,0,VALID,22.3568,VALID,29,VALID,1.2582,
2009-09-03, 03:38:05,VALID,997.956,VALID,0,VALID,91.2655,VALID,0,VALID,22.3178,VALID,29,VALID,1.19023,
2009-09-03, 03:39:05,VALID,997.941,VALID,0,VALID,91.1511,VALID,0,VALID,22.2966,VALID,28,VALID,0.987109,
2009-09-03, 03:40:05,VALID,997.948,VALID,0,VALID,91.1434,VALID,0,VALID,22.2381,VALID,27,VALID,0.879687,
2009-09-03, 03:41:05,VALID,997.927,VALID,0,VALID,91.0366,VALID,0,VALID,22.1795,VALID,28,VALID,0.973437,
2009-09-03, 03:42:05,VALID,997.939,VALID,0,VALID,91.2197,VALID,0,VALID,22.1015,VALID,24,VALID,1.15234,
2009-09-03, 03:43:05,VALID,997.92,VALID,0,VALID,91.3037,VALID,0,VALID,22.1032,VALID,31,VALID,1.11406,
2009-09-03, 03:44:05,VALID,997.938,VALID,0,VALID,91.4257,VALID,0,VALID,22.0235,VALID,31,VALID,0.924219,
2009-09-03, 03:45:05,VALID,997.943,VALID,0,VALID,91.3876,VALID,0,VALID,22.004,VALID,30,VALID,0.7375,
2009-09-03, 03:46:05,VALID,997.94,VALID,0,VALID,91.5402,VALID,0,VALID,21.9455,VALID,19,VALID,0.805469,